RH
20 21 22 24 24 24 23 21 18 17 17 17 17 16 16 16 15 14 15 20 23 27 28 30 31 34 36 38 40 38 33 30 27 25 26 29 31 30 30 34 37 56 55 44 45 37 35
20 21 22 24 24 22 20 18 17 18 17 16 15 15 15 14 14 16 20 22 27 29 32 33 34 35 36 32 30 28 27 27 25 28 31 31 32 32 33 35 38 58 52 46 39 37 38
23 23 23 23 21 20 19 18 18 18 16 14 13 12 12 13 14 18 21 26 31 32 33 32 30 27 27 26 28 29 32 34 33 35 39 46 45 42 40 42 63 76 55 43 36 38 37
24 23 22 20 20 20 20 19 19 21 21 17 15 14 14 15 17 20 26 32 34 32 30 29 30 31 32 32 34 35 36 40 44 47 48 53 56 60 68 80 92 68 45 42 44 39 40
26 24 23 22 21 20 19 23 29 25 19 16 13 14 14 14 19 27 30 34 33 36 38 40 44 43 41 44 49 52 57 63 64 66 62 63 69 69 76 80 73 43 40 42 40 37 39
28 27 25 24 21 23 29 31 31 25 21 18 15 14 15 22 28 32 32 35 38 41 44 46 49 51 56 56 52 55 56 57 59 60 64 63 60 64 70 60 44 39 42 36 35 37 38
28 26 24 27 27 37 31 34 27 26 27 25 22 22 26 28 30 32 33 35 41 45 49 52 56 65 70 60 56 60 63 64 55 57 62 61 57 56 46 38 37 45 42 32 36 42 42
26 26 30 33 44 36 35 35 26 26 26 26 27 28 29 30 30 32 35 41 47 53 64 66 63 60 54 44 45 50 59 63 64 55 57 58 50 42 34 37 42 40 32 33 44 46 47
28 28 33 41 50 40 40 38 31 28 27 28 27 28 28 30 34 42 46 47 58 67 60 56 51 48 44 41 41 38 37 37 43 56 62 62 56 44 36 40 35 27 30 39 50 56 48
28 28 30 39 44 49 42 43 43 34 30 29 27 27 30 41 41 48 47 65 72 71 65 53 48 48 46 42 37 36 35 36 41 50 63 53 46 42 45 36 28 30 35 44 48 53 58
30 29 28 32 39 52 47 42 47 43 40 34 32 37 42 40 47 52 64 68 68 60 55 53 57 57 53 47 40 34 35 35 38 43 41 42 38 34 29 27 38 38 44 48 56 58 63
26 30 28 28 30 40 53 45 44 45 44 38 37 38 36 40 44 52 64 76 80 72 68 59 57 50 45 46 43 33 33 30 31 30 30 34 25 26 32 43 44 44 47 49 52 53 53
24 29 27 28 29 29 43 54 44 44 43 39 38 38 38 39 41 43 48 48 55 69 66 52 47 45 43 42 40 32 31 28 28 26 21 22 24 30 41 38 40 41 45 48 49 48 55
24 28 30 29 29 26 29 43 48 42 41 40 40 42 43 45 46 46 48 48 44 46 42 42 45 43 43 40 39 32 31 28 26 24 23 26 27 31 36 34 46 52 55 60 61 55 64
25 27 31 29 29 25 24 28 41 49 47 49 47 45 49 48 49 48 46 46 47 46 42 42 45 46 40 39 37 35 34 27 25 25 25 30 32 30 34 40 47 50 54 56 61 55 53
25 26 30 29 29 24 22 22 23 44 52 49 50 48 49 50 48 42 42 40 40 42 42 42 49 50 44 41 36 36 34 29 26 24 28 27 28 30 35 39 49 56 51 53 53 52 44
27 27 33 33 31 26 24 22 20 29 47 52 51 52 47 45 44 40 36 36 38 39 41 47 44 42 41 39 39 40 35 30 26 23 24 24 26 28 35 38 54 55 55 57 58 63 62
29 29 32 32 31 30 28 24 21 25 39 49 52 50 49 48 46 41 38 36 37 37 41 45 42 43 41 41 48 43 37 32 32 28 30 35 30 30 33 41 49 60 58 61 67 80 83
30 30 30 30 31 31 30 26 21 22 34 44 48 52 49 47 43 40 39 38 34 38 42 45 46 45 44 43 48 42 40 41 37 36 40 33 30 31 39 44 52 66 69 66 75 86 94
29 30 29 29 32 32 29 24 21 21 29 40 38 40 46 45 43 42 40 37 41 45 47 48 44 44 44 50 49 38 36 42 45 46 42 32 35 36 50 59 66 87 84 71 91 66 83
44 36 30 32 33 30 27 24 28 34 29 36 35 36 38 37 38 41 42 48 49 48 46 42 45 46 52 51 42 36 37 44 51 49 48 41 31 39 44 55 59 72 74 66 84 82 87
34 33 30 28 27 25 22 21 27 32 36 35 37 38 38 40 48 59 60 54 52 49 46 43 42 48 51 40 32 31 36 44 45 40 40 31 36 48 56 60 67 91 78 66 85 97 67
46 37 27 25 25 28 33 32 34 34 34 33 38 43 50 59 56 59 61 57 52 42 45 47 43 38 33 31 29 29 31 30 30 31 28 31 43 49 60 64 71 100 73 61 64 100 70
45 45 40 38 38 38 35 30 30 38 41 39 40 45 54 68 67 64 56 47 43 42 42 43 40 33 30 26 26 31 37 32 26 25 30 35 43 60 62 71 67 74 49 56 76 90 86
85 79 73 55 44 41 38 38 36 36 40 42 45 46 47 49 56 53 43 43 39 39 35 35 29 24 23 24 22 22 23 22 27 33 40 40 58 60 64 72 49 75 53 56 78 81 84
74 78 72 67 68 65 57 51 52 56 54 57 50 45 36 37 48 52 46 41 35 36 38 29 22 23 21 25 26 24 19 24 28 31 32 44 59 68 84 71 72 81 68 68 59 65 58
75 78 74 70 71 60 62 60 53 50 51 41 46 43 37 37 35 39 42 39 35 38 29 23 20 20 21 23 21 22 22 26 31 30 38 54 69 96 97 63 69 74 66 68 54 43 45
54 64 75 74 67 75 80 74 65 63 59 49 37 34 29 22 21 23 28 34 53 46 35 28 25 25 25 26 27 28 28 27 31 40 53 70 99 100 78 53 61 53 62 77 67 48 60
48 41 40 46 57 62 58 60 56 49 39 34 25 29 30 29 23 28 34 49 48 37 35 39 34 27 26 26 27 27 29 34 46 61 72 78 100 98 77 83 68 87 84 95 67 37 37
Wind_Speed
21 19 19 17 17 16 14 13 12 14 16 19 21 22 23 24 23 22 19 13 6 3 4 4 3 4 8 10 12 13 14 16 12 18 20 20 22 26 29 30 30 37 43 44 51 56 62
18 18 17 15 13 12 11 12 13 17 21 24 25 26 26 27 24 19 12 4 2 3 4 2 2 4 7 9 11 13 14 16 15 19 22 24 26 28 32 31 35 41 46 46 52 57 63
18 17 15 14 13 11 11 12 16 21 27 30 32 32 31 28 21 11 4 5 5 4 2 2 4 7 7 8 12 15 15 17 18 20 23 25 27 30 32 34 39 42 45 49 53 60 65
17 17 16 14 12 11 11 15 19 22 25 28 27 26 24 19 13 10 11 10 10 8 8 9 8 9 10 11 14 17 19 20 22 23 26 28 30 31 32 35 38 42 44 51 58 62 67
18 17 14 12 11 11 12 11 10 16 15 11 9 8 11 14 20 19 16 13 11 10 9 7 8 9 11 13 15 19 21 22 24 26 28 30 31 32 34 37 39 40 45 52 59 64 70
17 14 13 10 10 8 6 4 6 8 10 8 10 16 22 29 24 18 12 10 7 6 5 5 7 9 13 16 18 20 22 24 26 26 27 30 31 31 32 34 36 42 47 53 57 63 72
17 14 11 8 7 5 3 1 2 8 15 19 24 28 27 22 18 15 10 8 5 2 5 8 10 12 15 18 20 23 25 28 29 30 31 33 32 32 33 35 38 44 50 57 58 62 69
17 14 10 8 6 6 4 2 2 6 11 16 18 18 18 15 12 9 5 3 3 6 7 8 10 14 16 20 23 27 30 31 34 34 34 34 35 34 35 34 39 47 50 56 64 65 68
18 15 11 9 6 6 6 4 5 4 6 9 10 11 11 10 7 4 1 2 4 5 7 10 13 16 17 22 27 30 33 35 37 38 38 38 38 34 33 37 43 48 53 58 59 63 70
19 17 13 11 8 7 8 7 5 6 5 5 5 7 8 7 2 1 2 2 3 6 8 9 13 18 21 26 30 34 37 38 39 40 41 40 38 38 36 38 43 50 52 54 60 71 73
21 19 16 13 11 10 10 10 8 8 6 8 9 8 8 6 3 3 3 4 7 8 9 13 17 21 24 28 31 36 39 39 39 40 41 39 37 37 33 39 48 50 51 54 58 63 74
23 22 19 15 13 13 13 13 14 12 10 9 11 10 10 9 8 7 8 10 12 13 15 19 22 25 28 30 33 37 38 38 36 37 38 38 34 34 40 43 50 51 51 55 62 68 73
26 24 22 19 16 16 16 16 17 16 14 13 13 14 15 15 15 14 15 15 17 18 22 25 26 29 32 35 36 38 38 37 36 39 37 36 34 38 40 48 57 60 61 63 64 67 74
29 27 25 22 20 21 20 20 19 19 19 17 17 17 17 18 19 19 21 21 22 23 26 28 30 33 34 36 38 42 40 38 39 36 32 41 43 43 48 55 58 62 65 67 70 72 78
31 30 29 27 24 24 24 23 22 22 22 21 21 21 21 22 23 24 24 26 28 29 30 32 34 34 36 37 37 43 42 40 42 37 35 37 42 48 50 55 62 69 71 73 75 75 78
34 33 32 30 27 26 25 25 25 25 25 25 24 24 25 26 26 27 28 30 31 32 33 33 34 35 38 39 41 43 39 41 42 38 40 42 45 47 51 58 64 71 75 77 79 87 87
36 34 34 33 30 30 28 28 27 29 29 29 28 26 26 28 29 27 28 29 30 31 32 31 32 35 38 42 44 44 42 43 42 40 41 42 50 55 57 62 71 76 77 77 81 90 99
37 36 36 35 34 32 31 31 30 31 32 33 33 33 32 31 32 32 33 33 32 33 32 32 34 37 41 43 44 42 44 45 46 45 48 53 55 58 63 66 72 76 76 84 90 96 104
38 38 37 37 36 36 36 35 33 33 35 35 36 37 37 36 35 35 36 36 35 36 35 36 37 42 45 45 42 44 46 49 50 52 55 56 62 62 68 71 74 84 82 87 89 96 105
40 40 40 39 38 39 38 37 36 36 37 37 37 37 38 37 36 37 37 37 35 37 38 38 42 44 46 45 43 46 47 51 53 56 59 57 64 72 79 80 80 89 88 91 95 99 106
42 41 41 40 40 41 40 39 38 37 37 37 37 37 37 38 38 38 38 37 39 40 42 43 46 47 46 44 45 49 52 55 56 59 60 65 62 71 84 82 80 93 94 94 99 105 111
41 43 43 43 43 43 43 43 41 38 37 36 36 36 39 39 39 38 39 41 42 44 46 48 46 45 46 47 50 50 53 55 57 61 63 66 68 71 75 77 80 91 91 93 100 109 110
41 42 42 43 44 43 42 43 41 40 40 39 39 39 38 40 42 43 44 43 46 47 47 45 44 46 48 51 54 55 56 59 61 66 62 70 72 77 78 84 84 97 91 93 96 109 109
45 44 42 41 42 43 44 43 41 40 42 43 44 44 42 43 43 44 47 49 48 46 47 49 50 51 56 57 56 58 59 62 64 64 73 79 84 88 86 90 82 99 92 93 101 107 107
45 45 44 46 46 47 46 44 45 46 47 48 46 47 45 45 47 49 51 50 49 49 51 54 57 59 62 60 60 60 61 64 64 72 78 80 83 89 93 92 85 100 97 93 101 100 104
50 50 50 49 47 48 49 50 49 47 47 47 48 49 49 47 46 48 51 52 55 56 58 60 62 66 68 68 67 65 63 65 67 75 82 85 89 96 100 99 100 104 103 102 102 98 96
56 55 55 55 54 54 53 52 52 54 53 53 54 55 52 51 50 53 56 58 60 62 63 61 66 69 70 70 68 70 67 73 78 84 90 92 95 99 104 98 100 105 105 104 103 101 95
65 63 62 62 61 61 60 59 57 57 59 58 59 60 58 55 58 60 62 67 68 71 72 68 68 73 74 77 76 75 74 82 86 86 93 97 104 107 104 99 107 101 107 111 104 101 96
72 71 72 72 71 69 68 70 69 68 68 68 67 67 66 65 62 66 70 74 76 77 76 72 76 80 83 84 82 81 85 85 88 91 95 100 109 110 107 110 112 113 116 115 104 103 104
Wind_Direction
184 189 186 188 192 206 216 233 255 264 269 271 272 273 274 279 286 289 295 307 330 33 50 76 55 5 352 345 335 336 333 326 315 324 332 324 321 324 323 323 328 337 334 334 338 336 337
185 185 187 193 198 211 228 250 270 277 278 276 273 271 270 273 280 285 288 312 82 92 85 80 5 341 341 344 341 339 336 333 326 329 323 317 319 320 321 321 327 329 330 334 338 337 335
183 182 191 200 212 226 249 267 278 283 282 278 274 270 267 267 270 265 220 138 121 94 93 72 25 10 358 338 340 336 329 330 324 321 318 319 315 315 322 323 326 329 331 335 338 334 334
180 189 199 207 221 244 262 276 285 291 291 287 277 265 257 250 233 173 147 127 111 101 72 52 36 15 1 349 340 333 326 321 315 311 309 309 309 315 317 319 321 324 329 333 334 332 332
184 192 202 215 234 254 268 280 308 317 311 298 277 225 193 170 152 141 129 117 105 92 77 58 33 12 356 349 340 335 329 323 320 318 315 312 307 307 310 310 317 324 328 333 335 333 329
184 190 206 218 238 249 256 300 334 21 48 71 110 129 137 138 137 132 130 118 105 81 55 22 1 349 342 335 329 329 328 325 320 318 318 318 315 310 308 310 319 325 328 330 331 331 332
187 192 204 213 229 228 251 301 6 76 78 93 110 121 130 134 135 138 128 121 105 56 7 358 353 348 346 338 329 323 319 322 322 322 315 312 312 309 311 313 327 327 327 327 330 335 335
192 190 199 211 220 208 226 213 192 103 98 111 117 119 125 129 131 131 125 107 29 356 360 1 360 3 358 349 336 328 327 321 319 318 320 313 310 311 313 317 321 324 324 328 333 334 335
196 193 197 211 222 215 219 206 204 171 137 130 130 134 135 136 132 130 148 345 343 348 351 356 360 359 352 348 344 340 337 334 325 319 322 319 313 314 312 318 323 327 327 333 334 335 336
203 203 201 212 223 230 220 226 215 194 178 193 183 170 156 147 138 290 296 329 343 342 335 338 348 349 348 340 339 341 343 337 330 325 321 322 319 322 322 325 330 333 334 334 331 333 337
209 210 211 217 227 235 231 229 231 211 218 210 205 193 186 211 237 310 301 304 322 323 327 329 334 336 335 334 334 338 339 335 329 327 327 323 322 323 325 329 337 340 335 334 335 336 338
217 217 219 221 230 235 241 234 236 240 235 226 220 227 232 243 265 280 280 285 301 304 313 319 326 325 325 327 331 335 336 333 332 330 327 322 326 329 331 336 337 340 339 335 333 335 337
224 223 226 228 235 237 243 245 239 243 247 252 250 254 258 263 272 281 282 288 291 297 302 311 317 318 319 323 326 331 334 333 332 329 334 334 330 329 330 338 338 336 336 334 333 335 338
227 228 230 231 239 240 243 247 247 247 251 257 261 268 270 270 275 279 283 286 291 295 300 306 311 314 315 320 325 329 332 328 328 328 330 335 333 328 328 331 337 336 336 338 339 343 347
230 232 233 235 242 245 247 252 252 251 252 255 261 264 266 269 274 277 283 285 287 292 297 302 307 310 315 320 323 329 331 327 327 324 324 329 328 329 332 333 333 335 338 338 339 340 342
231 234 236 239 246 248 251 254 254 252 252 257 260 262 265 267 273 280 284 287 290 294 297 303 308 310 313 317 321 329 325 323 324 328 328 330 329 328 327 333 331 332 340 341 340 339 339
232 236 238 242 247 250 254 255 257 252 252 254 259 262 268 270 274 279 287 292 295 298 302 304 307 309 312 317 322 324 321 323 322 322 327 329 330 327 322 328 333 331 335 341 343 341 342
236 237 240 244 250 251 257 259 258 253 253 256 260 265 269 273 276 281 288 291 296 300 300 299 304 308 313 318 317 317 318 324 321 319 324 328 330 331 325 332 332 333 339 346 344 342 342
236 240 242 246 249 253 256 259 260 257 254 256 259 262 266 271 276 281 287 292 294 298 300 302 305 309 314 315 316 316 317 319 321 321 322 325 325 330 328 332 330 328 338 343 341 340 340
239 241 243 247 250 253 257 260 262 260 255 256 263 266 269 274 279 284 288 292 293 294 298 301 305 307 310 312 314 316 316 318 318 321 321 322 327 332 329 333 334 332 339 341 339 337 336
240 242 244 245 248 252 255 259 262 258 257 259 269 272 274 278 280 283 286 287 289 294 299 301 305 307 310 312 313 316 318 319 318 317 319 321 323 331 325 329 334 332 336 337 338 336 335
240 241 242 244 248 254 259 260 259 257 259 262 267 267 272 274 275 279 281 285 291 296 300 304 306 308 308 309 312 315 316 315 317 317 318 319 324 326 325 327 336 330 332 336 335 331 335
245 245 245 247 251 254 256 256 256 259 262 264 265 270 274 278 280 282 284 289 295 298 301 302 302 303 305 307 311 314 315 317 315 316 315 321 323 324 325 326 335 326 332 334 333 328 331
246 247 249 252 255 256 257 259 261 263 264 266 268 270 273 279 281 284 286 288 292 295 295 297 300 302 306 310 310 312 312 312 315 317 320 323 320 322 327 325 334 323 328 331 329 327 327
252 251 251 252 253 256 258 260 262 265 268 268 269 270 272 277 283 284 286 289 292 293 296 298 299 304 306 305 307 308 308 313 315 319 319 319 320 322 321 322 333 320 325 323 323 327 323
255 256 256 255 256 255 256 259 260 262 264 269 271 271 273 277 280 284 287 290 291 292 297 299 302 303 303 303 303 305 308 309 316 315 315 319 322 321 319 325 328 322 328 325 324 323 320
254 257 258 260 259 259 259 259 262 265 268 270 273 274 276 277 279 281 286 289 293 295 298 302 303 301 302 300 303 302 309 309 314 313 314 319 319 317 315 325 324 325 326 327 324 320 321
253 257 258 260 260 260 261 262 263 265 266 269 271 273 275 276 279 285 290 290 291 293 297 298 299 299 301 302 301 304 310 312 312 315 315 318 314 310 317 322 320 325 327 326 323 322 320
260 260 260 259 260 261 263 265 266 268 269 273 276 279 282 285 289 290 290 289 292 294 296 296 296 297 296 297 302 308 308 307 313 315 316 314 307 310 319 322 324 325 324 323 322 324 323